Location: Borovka
(49.7741°N, 14.5280°E)
Time: 22:20:30
(UTC+00:00)

ESTCUBE 1 - Visible Passes

Search period start: 14 March 2026 00:00
Search period end: 24 March 2026 00:00
Orbit: 621 x 631 km, 97.7° (Epoch: 14 March)

Date Brightness Start Highest point End Pass type
(mag) Time Alt. Az. Time Alt. Az. Time Alt. Az.
14 Mar ? 18:24:17 18° ENE 18:25:12 20° ENE 18:28:19 10° NNE visible
14 Mar ? 20:01:33 53° WNW 20:01:33 53° WNW 20:05:23 10° NNW visible
15 Mar ? 18:43:26 26° E 18:44:05 28° ENE 18:47:48 10° N visible
15 Mar ? 20:20:42 36° W 20:20:42 36° W 20:24:18 10° NNW visible
16 Mar ? 19:02:34 39° E 19:03:01 40° ENE 19:07:07 10° N visible
16 Mar ? 20:39:51 24° W 20:39:51 24° W 20:43:02 10° NW visible
17 Mar ? 19:21:42 59° E 19:22:00 61° ENE 19:26:20 10° N visible
17 Mar ? 20:58:59 17° W 20:58:59 17° W 21:01:31 10° NW visible
18 Mar ? 18:03:34 11° E 18:05:25 14° ENE 18:07:37 10° NNE visible
18 Mar ? 19:40:51 83° S 19:41:02 89° W 19:45:26 10° NNW visible
18 Mar ? 21:18:07 11° W 21:18:07 11° W 21:19:12 10° WNW visible
19 Mar ? 18:22:42 16° E 18:24:14 19° ENE 18:27:22 10° NNE visible
19 Mar ? 19:59:59 58° WSW 20:00:05 58° W 20:04:26 10° NNW visible
20 Mar ? 18:41:49 23° E 18:43:06 27° ENE 18:46:49 10° N visible
20 Mar ? 20:19:06 38° W 20:19:13 38° W 20:23:19 10° NNW visible
21 Mar ? 19:00:57 34° ESE 19:02:01 40° ENE 19:06:07 10° N visible
21 Mar ? 20:38:14 25° W 20:38:23 25° W 20:42:04 10° NW visible
22 Mar ? 19:20:04 48° ESE 19:20:58 60° ENE 19:25:18 10° N visible
22 Mar ? 20:57:21 17° W 20:57:37 17° W 21:00:31 10° NW visible
23 Mar ? 18:02:14 10° E 18:04:24 14° ENE 18:06:33 10° NNE visible
23 Mar ? 19:39:12 61° SSE 19:39:59 90° WNW 19:44:24 10° NNW visible
23 Mar ? 21:16:28 11° W 21:16:53 11° W 21:18:16 10° WNW visible
